Showing default

PRAETORIAN SDA_610, 65573

Orbit data source: Space-Track

PRAETORIAN SDA_610, 65573 is a payload satellite owned by SDA (US) in LEO that was launched on Wed, 10 Sep 2025 UTC via an FALCON 9 launch vehicle from the Air Force Western Test Range (AFWTR). Payload-class satellites include a variety of spacecraft equipped with specific instruments for various scientific and technological missions. These include communications satellites like Starlink; space stations such as the ISS; scientific satellites like the Hubble; Earth observation satellites from companies like Planet Labs, Umbra, and HawkEye 360; GPS; miniature CubeSats for education and research; and military/defense satellites.

Loading next visibility...
Identifier
65573, 2025-203J
Orbit
LEO
Country
Flag of USUS
Related business
Manufacturer
York Space Sys
Mission
Operational Defense Communications
Bus & Motor
S-CLASS, Unknown motor
Mass
~300 kg wet, ~300 kg dry
Launch date (UTC)
2025-09-10 (9 months ago)
Launch vehicle
FALCON 9
Launch site
Air Force Western Test Range (AFWTR)
Object type
Payload
Rocket body
Debris
Shape & HBR
Box + 4 Pan, 14.5 m
Radar Cross Section
1.244 m², Large (>1 m²)

Expand to show TLE details & history
Last TLE update: 13 hours ago

TLE from 13 hours ago
0 PRAETORIAN SDA_610
1 65573U 25203J   26171.30949067  .00000054  00000-0  38212-4 0  9992
2 65573  81.2999   7.8745 0006766 182.2174 177.8954 13.83767709 39124
Epoch: 2026-06-20T07:25Z
TLE epoch observation values (Epoch: 2026-06-20T07:25:39.993Z)
Latitude
-0.00001°
Longitude
-12.0681°
Altitude
958.375 km
Speed
7.37 km/s
True Right ascension
00h 31m 29s
True Declination
0° 00' 00"
Sunlit
Object was in daylight at epoch
Visualization orbit readout
Latitude
Unknown
Longitude
Unknown
Altitude
Unknown
Speed
Unknown
Apparent Right ascension
Unknown
Apparent Declination
Unknown
Sunlit
N/A
Visualization observer readout
Local Sidereal Time
07:12:38
Azimuth
Unknown
Elevation
Unknown
Doppler factor
Unknown
Orbital elements
Apogee altitude
952.717 km
Perigee altitude
942.804 km
Semi-major axis
7,325.897 km
Eccentricity
0.00068
Inclination
81.2999°
RAAN
7.8745°
Arg. of periapsis
182.2174°
True anomaly
177.89824°
Mean anomaly
177.8954°
Eccentric anomaly
177.89682°
Mean motion
3.4614 °/min
Orbital period
104 mins
BSTAR
0.000038212
Loading maneuver chart data...
Computing Atmospheric mass density...

Documentation

Showing up to 5 results
|